Bettles Field, AK (99726)

6:27 AM AKDT on May 29, 2017 (GMT -0800)
Bettles | | Change Station

Elev 643 ft 66.92 °N, 151.53 °W | Updated 34 minutes ago

Overcast
Overcast
48 °F
Feels Like 48 °F
N
6
Wind Variable Wind from North

Today
High -- | Low -- °F
--% Chance of Precip.
Yesterday
High -- | Low -- °F
Precip. -- in
Pressure 29.78 in
Visibility 10.0 miles
Clouds Scattered Clouds 7500 ft
Mostly Cloudy 9000 ft
Overcast 11000 ft
Dew Point 39 °F
Humidity 71%
Rainfall 0.00 in
Snow Depth Not available.
2:58 AM 1:15 AM
Waxing Crescent, 20% visible
METAR PABT 291353Z 01005KT 10SM SCT075 BKN090 OVC110 09/04 A2976 RMK AO2 SLP085 T00890039 $
Pressure 29.78 in
Visibility 10.0 miles
Clouds Scattered Clouds 7500 ft
Mostly Cloudy 9000 ft
Overcast 11000 ft
Dew Point 39 °F
Humidity 71%
Rainfall 0.00 in
Snow Depth Not available.
2:58 AM 1:15 AM
Waxing Crescent, 20% visible
METAR PABT 291353Z 01005KT 10SM SCT075 BKN090 OVC110 09/04 A2976 RMK AO2 SLP085 T00890039 $

Get Severe Weather Alerts

Thanks for signing up!

Be on the lookout for a verification email in your inbox.

You'll start receiving the daily forecast at 6 AM.

×

10-Day Weather Forecast

Almanac

Astronomy

May. 29, 2017 Rise Set
Actual Time
Civil Twilight
Nautical Twilight
Astronomical Twilight
Moon
Length of Visible Light
Length of Day
Tomorrow will be .
, % of the Moon is Illuminated

Today's Extremes

State Highs State Lows

Community

WunderPhotos

Category 6

Welcome to Category 6. This is the collective home for Weather Underground's featured writeups by Dr. Jeff Masters (right), Bob Henson (left), Chris Burt, and other regular contributors.

Nearby

Air Quality

  Air Quality AQ Index Pollutant
Not available.

Snow Depth

Station Depth Elevation

Earthquake Activity

City Distance Mag. Time & Date
Minimum magnitude displayed is 2.5.

Coastal Water Temperatures

Place Temperature

Stations

Nearby Weather Stations

Station Location Temp. Windchill Dew Point Humidity Wind Precip. Elev Updated Type
                   

Watches & Warnings

There are currently no watches in effect.